Time,TemperatureF,DewpointF,PressureIn,WindDirection,WindDirectionDegrees,WindSpeedMPH,WindSpeedGustMPH,Humidity,HourlyPrecipIn,Conditions,Clouds,dailyrainin,SoftwareType,DateUTC
2013-09-14 00:02:00,62.2,45.3,24.16,NW,315,11.0,12.0,54,0.00,,,0.00,meteohub,2013-09-14 06:02:00,
2013-09-14 00:07:00,62.2,45.3,24.16,NW,315,11.0,12.0,54,0.00,,,0.00,meteohub,2013-09-14 06:07:00,
2013-09-14 00:12:00,61.7,45.3,24.15,NW,315,11.0,11.0,55,0.00,,,0.00,meteohub,2013-09-14 06:12:00,
2013-09-14 00:17:00,61.3,44.6,24.15,NW,315,12.0,12.0,54,0.00,,,0.00,meteohub,2013-09-14 06:17:00,
2013-09-14 00:22:00,61.2,44.4,24.15,NW,315,11.0,12.0,54,0.00,,,0.00,meteohub,2013-09-14 06:22:00,
2013-09-14 00:27:00,61.0,44.2,24.15,NW,315,11.0,12.0,54,0.00,,,0.00,meteohub,2013-09-14 06:27:00,
2013-09-14 00:32:00,61.2,43.9,24.15,NW,315,15.0,15.0,53,0.00,,,0.00,meteohub,2013-09-14 06:32:00,
2013-09-14 00:37:00,61.9,44.1,24.16,NW,315,14.0,15.0,52,0.00,,,0.00,meteohub,2013-09-14 06:37:00,
2013-09-14 00:42:00,61.9,44.1,24.16,NW,315,12.0,18.0,52,0.00,,,0.00,meteohub,2013-09-14 06:42:00,
2013-09-14 00:47:00,61.7,43.3,24.16,NW,315,11.0,18.0,51,0.00,,,0.00,meteohub,2013-09-14 06:47:00,
2013-09-14 00:52:00,61.5,43.7,24.16,NW,315,15.0,18.0,52,0.00,,,0.00,meteohub,2013-09-14 06:52:00,
2013-09-14 00:57:00,61.0,43.7,24.16,NW,315,16.0,17.0,53,0.00,,,0.00,meteohub,2013-09-14 06:57:00,
2013-09-14 01:02:00,60.8,44.1,24.16,NW,315,17.0,17.0,54,0.00,,,0.00,meteohub,2013-09-14 07:02:00,
2013-09-14 01:07:00,60.8,44.1,24.16,NW,315,17.0,17.0,54,0.00,,,0.00,meteohub,2013-09-14 07:07:00,
2013-09-14 01:12:00,60.6,44.8,24.16,NW,315,13.0,17.0,56,0.00,,,0.00,meteohub,2013-09-14 07:12:00,
2013-09-14 01:17:00,60.3,45.0,24.16,NW,315,16.0,17.0,57,0.00,,,0.00,meteohub,2013-09-14 07:17:00,
2013-09-14 01:22:00,60.3,45.0,24.16,NW,315,15.0,17.0,57,0.00,,,0.00,meteohub,2013-09-14 07:22:00,
2013-09-14 01:27:00,59.7,45.3,24.16,NW,315,15.0,16.0,59,0.00,,,0.00,meteohub,2013-09-14 07:27:00,
2013-09-14 01:32:00,60.1,45.3,24.16,NW,315,17.0,17.0,58,0.00,,,0.00,meteohub,2013-09-14 07:32:00,
2013-09-14 01:37:00,59.9,45.5,24.17,NW,315,17.0,18.0,59,0.00,,,0.00,meteohub,2013-09-14 07:37:00,
2013-09-14 01:42:00,59.5,45.7,24.17,NW,315,12.0,18.0,60,0.00,,,0.00,meteohub,2013-09-14 07:42:00,
2013-09-14 01:47:00,59.2,45.7,24.17,NW,315,11.0,17.0,61,0.00,,,0.00,meteohub,2013-09-14 07:47:00,
2013-09-14 01:52:00,59.0,46.0,24.17,NW,315,8.0,17.0,62,0.00,,,0.00,meteohub,2013-09-14 07:52:00,
2013-09-14 01:57:00,58.8,46.2,24.17,NW,315,12.0,13.0,63,0.00,,,0.00,meteohub,2013-09-14 07:57:00,
2013-09-14 02:02:00,58.5,46.4,24.17,NW,315,11.0,12.0,64,0.00,,,0.00,meteohub,2013-09-14 08:02:00,
2013-09-14 02:07:00,58.5,46.4,24.17,NW,315,11.0,12.0,64,0.00,,,0.00,meteohub,2013-09-14 08:07:00,
2013-09-14 02:12:00,58.3,46.9,24.17,NW,315,13.0,13.0,66,0.00,,,0.00,meteohub,2013-09-14 08:12:00,
2013-09-14 02:17:00,58.1,46.8,24.17,NW,315,11.0,13.0,66,0.00,,,0.00,meteohub,2013-09-14 08:17:00,
2013-09-14 02:22:00,57.9,46.6,24.17,NW,315,11.0,13.0,66,0.00,,,0.00,meteohub,2013-09-14 08:22:00,
2013-09-14 02:27:00,57.9,46.6,24.17,NW,315,13.0,13.0,66,0.00,,,0.00,meteohub,2013-09-14 08:27:00,
2013-09-14 02:32:00,57.9,46.6,24.17,NW,315,15.0,15.0,66,0.00,,,0.00,meteohub,2013-09-14 08:32:00,
2013-09-14 02:37:00,57.7,46.9,24.17,NW,315,12.0,15.0,67,0.00,,,0.00,meteohub,2013-09-14 08:37:00,
2013-09-14 02:42:00,57.7,46.9,24.17,NW,315,12.0,15.0,67,0.00,,,0.00,meteohub,2013-09-14 08:42:00,
2013-09-14 02:47:00,57.4,47.3,24.17,North,0,14.0,15.0,69,0.00,,,0.00,meteohub,2013-09-14 08:47:00,
2013-09-14 02:52:00,56.7,47.3,24.17,NW,315,15.0,15.0,71,0.00,,,0.00,meteohub,2013-09-14 08:52:00,
2013-09-14 02:57:00,56.7,47.7,24.17,NW,315,19.0,19.0,72,0.00,,,0.00,meteohub,2013-09-14 08:57:00,
2013-09-14 03:02:00,56.5,48.0,24.17,NW,315,19.0,20.0,73,0.00,,,0.00,meteohub,2013-09-14 09:02:00,
2013-09-14 03:07:00,56.5,48.0,24.17,NW,315,19.0,20.0,73,0.00,,,0.00,meteohub,2013-09-14 09:07:00,
2013-09-14 03:12:00,56.8,47.8,24.17,NW,315,21.0,21.0,72,0.00,,,0.00,meteohub,2013-09-14 09:12:00,
2013-09-14 03:17:00,57.0,47.7,24.17,NW,315,19.0,21.0,71,0.00,,,0.00,meteohub,2013-09-14 09:17:00,
2013-09-14 03:22:00,55.9,47.8,24.17,NW,315,19.0,22.0,74,0.00,,,0.00,meteohub,2013-09-14 09:22:00,
2013-09-14 03:27:00,56.1,48.0,24.17,NW,315,19.0,22.0,74,0.00,,,0.00,meteohub,2013-09-14 09:27:00,
2013-09-14 03:32:00,56.1,48.4,24.18,NW,315,19.0,22.0,75,0.00,,,0.00,meteohub,2013-09-14 09:32:00,
2013-09-14 03:37:00,55.9,48.2,24.17,NW,315,21.0,22.0,75,0.00,,,0.00,meteohub,2013-09-14 09:37:00,
2013-09-14 03:42:00,56.1,48.4,24.18,NW,315,21.0,25.0,75,0.00,,,0.00,meteohub,2013-09-14 09:42:00,
2013-09-14 03:47:00,56.1,48.4,24.18,NW,315,24.0,25.0,75,0.00,,,0.00,meteohub,2013-09-14 09:47:00,
2013-09-14 03:52:00,55.8,48.4,24.18,NNW,338,18.0,25.0,76,0.00,,,0.00,meteohub,2013-09-14 09:52:00,
2013-09-14 03:57:00,55.4,48.4,24.18,NW,315,17.0,24.0,77,0.00,,,0.00,meteohub,2013-09-14 09:57:00,
2013-09-14 04:02:00,55.6,48.2,24.18,NW,315,18.0,24.0,76,0.00,,,0.00,meteohub,2013-09-14 10:02:00,
2013-09-14 04:07:00,55.6,48.2,24.19,NW,315,18.0,23.0,76,0.00,,,0.00,meteohub,2013-09-14 10:07:00,
2013-09-14 04:12:00,55.6,48.2,24.18,NW,315,19.0,20.0,76,0.00,,,0.00,meteohub,2013-09-14 10:12:00,
2013-09-14 04:17:00,55.6,48.2,24.19,NW,315,17.0,21.0,76,0.00,,,0.00,meteohub,2013-09-14 10:17:00,
2013-09-14 04:22:00,55.8,48.4,24.19,NW,315,16.0,21.0,76,0.00,,,0.00,meteohub,2013-09-14 10:22:00,
2013-09-14 04:27:00,55.6,48.2,24.19,NW,315,17.0,21.0,76,0.00,,,0.00,meteohub,2013-09-14 10:27:00,
2013-09-14 04:32:00,55.2,48.2,24.19,NW,315,17.0,18.0,77,0.00,,,0.00,meteohub,2013-09-14 10:32:00,
2013-09-14 04:37:00,55.6,48.2,24.19,NW,315,21.0,21.0,76,0.00,,,0.00,meteohub,2013-09-14 10:37:00,
2013-09-14 04:42:00,55.4,48.4,24.19,NW,315,21.0,21.0,77,0.00,,,0.00,meteohub,2013-09-14 10:42:00,
2013-09-14 04:47:00,55.2,48.2,24.19,NW,315,18.0,21.0,77,0.00,,,0.00,meteohub,2013-09-14 10:47:00,
2013-09-14 04:52:00,54.7,48.4,24.19,NW,315,21.0,21.0,79,0.00,,,0.00,meteohub,2013-09-14 10:52:00,
2013-09-14 04:57:00,55.0,48.4,24.19,NW,315,19.0,22.0,78,0.00,,,0.00,meteohub,2013-09-14 10:57:00,
2013-09-14 05:02:00,54.9,47.8,24.19,NW,315,21.0,23.0,77,0.00,,,0.00,meteohub,2013-09-14 11:02:00,
2013-09-14 05:07:00,54.9,47.8,24.19,NW,315,21.0,23.0,77,0.00,,,0.00,meteohub,2013-09-14 11:07:00,
2013-09-14 05:12:00,54.0,47.7,24.20,NW,315,19.0,23.0,79,0.00,,,0.00,meteohub,2013-09-14 11:12:00,
2013-09-14 05:17:00,54.5,47.8,24.20,NW,315,22.0,24.0,78,0.00,,,0.00,meteohub,2013-09-14 11:17:00,
2013-09-14 05:22:00,54.1,47.5,24.19,NW,315,23.0,24.0,78,0.00,,,0.00,meteohub,2013-09-14 11:22:00,
2013-09-14 05:27:00,54.1,47.5,24.20,NW,315,24.0,24.0,78,0.00,,,0.00,meteohub,2013-09-14 11:27:00,
2013-09-14 05:32:00,53.8,47.1,24.20,WNW,293,22.0,26.0,78,0.00,,,0.00,meteohub,2013-09-14 11:32:00,
2013-09-14 05:37:00,53.8,46.8,24.20,North,0,22.0,26.0,77,0.00,,,0.00,meteohub,2013-09-14 11:37:00,
2013-09-14 05:42:00,53.4,46.8,24.20,NW,315,21.0,26.0,78,0.00,,,0.00,meteohub,2013-09-14 11:42:00,
2013-09-14 05:47:00,53.6,46.2,24.20,NW,315,23.0,26.0,76,0.00,,,0.00,meteohub,2013-09-14 11:47:00,
2013-09-14 05:52:00,53.4,46.4,24.20,NW,315,22.0,24.0,77,0.00,,,0.00,meteohub,2013-09-14 11:52:00,
2013-09-14 05:57:00,53.4,46.4,24.21,NW,315,23.0,24.0,77,0.00,,,0.00,meteohub,2013-09-14 11:57:00,
2013-09-14 06:02:00,53.2,46.2,24.20,NW,315,24.0,26.0,77,0.00,,,0.00,meteohub,2013-09-14 12:02:00,
2013-09-14 06:07:00,53.2,46.2,24.21,NW,315,24.0,26.0,77,0.00,,,0.00,meteohub,2013-09-14 12:07:00,
2013-09-14 06:12:00,52.9,45.9,24.21,NW,315,19.0,26.0,77,0.00,,,0.00,meteohub,2013-09-14 12:12:00,
2013-09-14 06:17:00,53.1,45.7,24.20,NW,315,22.0,25.0,76,0.00,,,0.00,meteohub,2013-09-14 12:17:00,
2013-09-14 06:22:00,52.9,45.9,24.20,NW,315,21.0,27.0,77,0.00,,,0.00,meteohub,2013-09-14 12:22:00,
2013-09-14 06:27:00,52.7,45.7,24.21,North,0,22.0,27.0,77,0.00,,,0.00,meteohub,2013-09-14 12:27:00,
2013-09-14 06:32:00,52.9,45.5,24.21,NW,315,23.0,26.0,76,0.00,,,0.00,meteohub,2013-09-14 12:32:00,
2013-09-14 06:37:00,52.7,45.3,24.21,NW,315,23.0,25.0,76,0.00,,,0.00,meteohub,2013-09-14 12:37:00,
2013-09-14 06:42:00,52.5,45.5,24.21,NW,315,21.0,25.0,77,0.00,,,0.00,meteohub,2013-09-14 12:42:00,
2013-09-14 06:47:00,52.7,45.3,24.22,NW,315,22.0,24.0,76,0.00,,,0.00,meteohub,2013-09-14 12:47:00,
2013-09-14 06:52:00,52.3,45.3,24.21,NW,315,21.0,25.0,77,0.00,,,0.00,meteohub,2013-09-14 12:52:00,
2013-09-14 06:57:00,52.0,45.3,24.21,NW,315,23.0,25.0,78,0.00,,,0.00,meteohub,2013-09-14 12:57:00,
2013-09-14 07:02:00,52.0,45.0,24.21,NW,315,27.0,27.0,77,0.00,,,0.00,meteohub,2013-09-14 13:02:00,
2013-09-14 07:07:00,52.0,45.0,24.22,NW,315,27.0,27.0,77,0.00,,,0.00,meteohub,2013-09-14 13:07:00,
2013-09-14 07:12:00,51.3,44.6,24.22,NW,315,23.0,27.0,78,0.00,,,0.00,meteohub,2013-09-14 13:12:00,
2013-09-14 07:17:00,51.6,44.6,24.22,NW,315,26.0,27.0,77,0.00,,,0.00,meteohub,2013-09-14 13:17:00,
2013-09-14 07:22:00,51.4,44.8,24.22,NW,315,23.0,27.0,78,0.00,,,0.00,meteohub,2013-09-14 13:22:00,
2013-09-14 07:27:00,51.3,44.6,24.22,NW,315,25.0,27.0,78,0.00,,,0.00,meteohub,2013-09-14 13:27:00,
2013-09-14 07:32:00,51.3,44.6,24.22,NW,315,26.0,27.0,78,0.00,,,0.00,meteohub,2013-09-14 13:32:00,
2013-09-14 07:37:00,51.1,44.8,24.22,NW,315,23.0,27.0,79,0.00,,,0.00,meteohub,2013-09-14 13:37:00,
2013-09-14 07:42:00,51.1,44.8,24.22,NW,315,25.0,27.0,79,0.00,,,0.00,meteohub,2013-09-14 13:42:00,
2013-09-14 07:52:00,51.3,44.6,24.23,NW,315,25.0,26.0,78,0.00,,,0.00,meteohub,2013-09-14 13:52:00,
2013-09-14 07:57:00,51.3,44.6,24.23,WNW,293,23.0,26.0,78,0.00,,,0.00,meteohub,2013-09-14 13:57:00,
2013-09-14 08:02:00,51.1,44.8,24.24,NW,315,23.0,27.0,79,0.00,,,0.00,meteohub,2013-09-14 14:02:00,
2013-09-14 08:07:00,51.1,44.8,24.23,NW,315,23.0,27.0,79,0.00,,,0.00,meteohub,2013-09-14 14:07:00,
2013-09-14 08:12:00,51.1,44.8,24.24,NW,315,23.0,24.0,79,0.00,,,0.00,meteohub,2013-09-14 14:12:00,
2013-09-14 08:17:00,51.1,44.8,24.24,NW,315,22.0,25.0,79,0.00,,,0.00,meteohub,2013-09-14 14:17:00,
2013-09-14 08:22:00,50.7,44.8,24.24,NW,315,21.0,25.0,80,0.00,,,0.00,meteohub,2013-09-14 14:22:00,
2013-09-14 08:27:00,50.9,45.0,24.24,North,0,23.0,25.0,80,0.00,,,0.00,meteohub,2013-09-14 14:27:00,
2013-09-14 08:32:00,50.9,45.0,24.24,NW,315,23.0,25.0,80,0.00,,,0.00,meteohub,2013-09-14 14:32:00,
2013-09-14 08:37:00,50.9,45.0,24.24,NW,315,22.0,25.0,80,0.00,,,0.00,meteohub,2013-09-14 14:37:00,
2013-09-14 08:42:00,50.9,45.0,24.24,NW,315,22.0,25.0,80,0.00,,,0.00,meteohub,2013-09-14 14:42:00,
2013-09-14 08:47:00,50.9,44.6,24.25,NW,315,22.0,24.0,79,0.00,,,0.00,meteohub,2013-09-14 14:47:00,
2013-09-14 08:52:00,51.1,44.8,24.25,NW,315,22.0,24.0,79,0.00,,,0.00,meteohub,2013-09-14 14:52:00,
2013-09-14 08:57:00,51.1,44.8,24.25,NW,315,24.0,24.0,79,0.00,,,0.00,meteohub,2013-09-14 14:57:00,
2013-09-14 09:02:00,51.3,45.0,24.25,NW,315,22.0,25.0,79,0.00,,,0.00,meteohub,2013-09-14 15:02:00,
2013-09-14 09:07:00,51.3,45.0,24.25,NW,315,22.0,25.0,79,0.00,,,0.00,meteohub,2013-09-14 15:07:00,
2013-09-14 09:12:00,51.4,45.1,24.24,NW,315,24.0,27.0,79,0.00,,,0.00,meteohub,2013-09-14 15:12:00,
2013-09-14 09:17:00,51.4,44.8,24.25,NW,315,27.0,27.0,78,0.00,,,0.00,meteohub,2013-09-14 15:17:00,
2013-09-14 09:22:00,51.6,45.3,24.25,NW,315,26.0,29.0,79,0.00,,,0.00,meteohub,2013-09-14 15:22:00,
2013-09-14 09:32:00,51.4,45.1,24.25,NW,315,27.0,29.0,79,0.00,,,0.00,meteohub,2013-09-14 15:32:00,
2013-09-14 09:37:00,51.4,45.5,24.25,NW,315,24.0,28.0,80,0.00,,,0.00,meteohub,2013-09-14 15:37:00,
2013-09-14 09:42:00,51.4,45.5,24.25,NW,315,26.0,28.0,80,0.00,,,0.00,meteohub,2013-09-14 15:42:00,
2013-09-14 09:47:00,51.8,45.5,24.25,NW,315,25.0,30.0,79,0.00,,,0.00,meteohub,2013-09-14 15:47:00,
2013-09-14 09:52:00,52.2,45.9,24.26,NW,315,23.0,30.0,79,0.00,,,0.00,meteohub,2013-09-14 15:52:00,
2013-09-14 09:57:00,51.8,45.5,24.26,NW,315,24.0,30.0,79,0.00,,,0.00,meteohub,2013-09-14 15:57:00,
2013-09-14 10:02:00,51.4,45.5,24.27,NW,315,24.0,27.0,80,0.00,,,0.00,meteohub,2013-09-14 16:02:00,
2013-09-14 10:07:00,51.4,45.5,24.27,NW,315,24.0,27.0,80,0.00,,,0.00,meteohub,2013-09-14 16:07:00,
2013-09-14 10:12:00,52.2,45.9,24.27,North,0,22.0,27.0,79,0.00,,,0.00,meteohub,2013-09-14 16:12:00,
2013-09-14 10:17:00,52.0,45.7,24.27,NW,315,22.0,24.0,79,0.00,,,0.00,meteohub,2013-09-14 16:17:00,
2013-09-14 10:22:00,52.0,46.4,24.27,NW,315,19.0,24.0,81,0.00,,,0.00,meteohub,2013-09-14 16:22:00,
2013-09-14 10:27:00,52.0,46.4,24.28,North,0,22.0,24.0,81,0.00,,,0.00,meteohub,2013-09-14 16:27:00,
2013-09-14 10:32:00,52.0,46.0,24.28,NW,315,22.0,24.0,80,0.00,,,0.00,meteohub,2013-09-14 16:32:00,
2013-09-14 10:37:00,52.3,46.4,24.28,North,0,23.0,24.0,80,0.00,,,0.00,meteohub,2013-09-14 16:37:00,
2013-09-14 10:42:00,53.2,47.3,24.28,North,0,20.0,24.0,80,0.00,,,0.00,meteohub,2013-09-14 16:42:00,
2013-09-14 10:47:00,52.9,46.6,24.28,NW,315,22.0,23.0,79,0.00,,,0.00,meteohub,2013-09-14 16:47:00,
2013-09-14 10:52:00,53.4,46.8,24.28,NW,315,17.0,23.0,78,0.00,,,0.00,meteohub,2013-09-14 16:52:00,
2013-09-14 10:57:00,53.6,46.9,24.28,NW,315,19.0,23.0,78,0.00,,,0.00,meteohub,2013-09-14 16:57:00,
2013-09-14 11:02:00,53.6,46.9,24.28,NW,315,16.0,23.0,78,0.00,,,0.00,meteohub,2013-09-14 17:02:00,
2013-09-14 11:07:00,53.6,46.9,24.29,NW,315,16.0,22.0,78,0.00,,,0.00,meteohub,2013-09-14 17:07:00,
2013-09-14 11:12:00,53.6,47.3,24.29,NW,315,17.0,22.0,79,0.00,,,0.00,meteohub,2013-09-14 17:12:00,
2013-09-14 11:17:00,53.8,47.1,24.28,NW,315,18.0,21.0,78,0.00,,,0.00,meteohub,2013-09-14 17:17:00,
2013-09-14 11:22:00,54.1,47.1,24.29,North,0,19.0,21.0,77,0.00,,,0.00,meteohub,2013-09-14 17:22:00,
2013-09-14 11:27:00,54.3,47.7,24.29,NW,315,18.0,21.0,78,0.00,,,0.00,meteohub,2013-09-14 17:27:00,
2013-09-14 11:32:00,54.5,47.5,24.28,NW,315,17.0,20.0,77,0.00,,,0.00,meteohub,2013-09-14 17:32:00,
2013-09-14 11:37:00,54.5,47.5,24.29,NW,315,17.0,20.0,77,0.00,,,0.00,meteohub,2013-09-14 17:37:00,
2013-09-14 11:42:00,54.3,47.7,24.28,NW,315,18.0,20.0,78,0.00,,,0.00,meteohub,2013-09-14 17:42:00,
2013-09-14 11:47:00,54.3,47.7,24.29,NW,315,16.0,23.0,78,0.00,,,0.00,meteohub,2013-09-14 17:47:00,
2013-09-14 11:52:00,54.1,47.5,24.29,North,0,17.0,23.0,78,0.00,,,0.00,meteohub,2013-09-14 17:52:00,
2013-09-14 11:57:00,54.5,47.8,24.29,North,0,16.0,23.0,78,0.00,,,0.00,meteohub,2013-09-14 17:57:00,
2013-09-14 12:02:00,54.7,47.7,24.29,North,0,16.0,21.0,77,0.00,,,0.00,meteohub,2013-09-14 18:02:00,
2013-09-14 12:07:00,54.7,47.7,24.29,North,0,16.0,19.0,77,0.00,,,0.00,meteohub,2013-09-14 18:07:00,
2013-09-14 12:12:00,55.4,48.0,24.29,North,0,17.0,19.0,76,0.00,,,0.00,meteohub,2013-09-14 18:12:00,
2013-09-14 12:17:00,55.0,47.7,24.29,NW,315,21.0,21.0,76,0.00,,,0.00,meteohub,2013-09-14 18:17:00,
2013-09-14 12:22:00,55.4,48.0,24.30,North,0,19.0,21.0,76,0.00,,,0.00,meteohub,2013-09-14 18:22:00,
2013-09-14 12:27:00,55.4,48.0,24.30,North,0,19.0,22.0,76,0.00,,,0.00,meteohub,2013-09-14 18:27:00,
2013-09-14 12:32:00,55.8,48.0,24.30,North,0,18.0,22.0,75,0.00,,,0.00,meteohub,2013-09-14 18:32:00,
2013-09-14 12:37:00,55.8,48.4,24.30,North,0,17.0,22.0,76,0.00,,,0.00,meteohub,2013-09-14 18:37:00,
2013-09-14 12:42:00,56.7,48.4,24.30,NW,315,19.0,22.0,74,0.00,,,0.00,meteohub,2013-09-14 18:42:00,
2013-09-14 12:47:00,56.7,48.4,24.30,NW,315,18.0,22.0,74,0.00,,,0.00,meteohub,2013-09-14 18:47:00,
2013-09-14 12:52:00,57.6,47.8,24.30,North,0,16.0,19.0,70,0.00,,,0.00,meteohub,2013-09-14 18:52:00,
2013-09-14 12:57:00,58.1,48.0,24.30,North,0,17.0,19.0,69,0.00,,,0.00,meteohub,2013-09-14 18:57:00,
2013-09-14 13:02:00,58.3,48.6,24.30,NW,315,17.0,20.0,70,0.00,,,0.00,meteohub,2013-09-14 19:02:00,
2013-09-14 13:07:00,58.3,48.6,24.31,NW,315,17.0,20.0,70,0.00,,,0.00,meteohub,2013-09-14 19:07:00,
2013-09-14 13:12:00,58.8,49.1,24.31,North,0,18.0,20.0,70,0.00,,,0.00,meteohub,2013-09-14 19:12:00,
2013-09-14 13:17:00,57.7,48.0,24.30,NW,315,21.0,21.0,70,0.00,,,0.00,meteohub,2013-09-14 19:17:00,
2013-09-14 13:22:00,59.0,48.4,24.31,North,0,23.0,25.0,68,0.00,,,0.00,meteohub,2013-09-14 19:22:00,
2013-09-14 13:27:00,59.5,48.9,24.30,North,0,22.0,25.0,68,0.00,,,0.00,meteohub,2013-09-14 19:27:00,
2013-09-14 13:32:00,59.4,48.4,24.30,North,0,23.0,25.0,67,0.00,,,0.00,meteohub,2013-09-14 19:32:00,
2013-09-14 13:37:00,59.2,49.1,24.30,North,0,23.0,27.0,69,0.00,,,0.00,meteohub,2013-09-14 19:37:00,
2013-09-14 13:42:00,59.4,49.1,24.31,North,0,19.0,27.0,69,0.00,,,0.00,meteohub,2013-09-14 19:42:00,
2013-09-14 13:47:00,61.0,49.5,24.30,WNW,293,23.0,27.0,66,0.00,,,0.00,meteohub,2013-09-14 19:47:00,
2013-09-14 13:52:00,60.3,48.9,24.30,North,0,18.0,27.0,66,0.00,,,0.00,meteohub,2013-09-14 19:52:00,
2013-09-14 13:57:00,60.1,48.7,24.30,North,0,26.0,27.0,66,0.00,,,0.00,meteohub,2013-09-14 19:57:00,
2013-09-14 14:02:00,60.3,49.6,24.30,North,0,21.0,27.0,68,0.00,,,0.00,meteohub,2013-09-14 20:02:00,
2013-09-14 14:07:00,60.3,49.6,24.30,North,0,21.0,27.0,68,0.00,,,0.00,meteohub,2013-09-14 20:07:00,
2013-09-14 14:12:00,61.9,49.6,24.30,North,0,18.0,26.0,64,0.00,,,0.00,meteohub,2013-09-14 20:12:00,
2013-09-14 14:17:00,63.1,49.1,24.30,North,0,30.0,30.0,60,0.00,,,0.00,meteohub,2013-09-14 20:17:00,
2013-09-14 14:22:00,62.4,48.7,24.30,WNW,293,22.0,30.0,61,0.00,,,0.00,meteohub,2013-09-14 20:22:00,
2013-09-14 14:27:00,62.2,47.3,24.30,North,0,29.0,30.0,58,0.00,,,0.00,meteohub,2013-09-14 20:27:00,
2013-09-14 14:32:00,62.2,47.7,24.30,North,0,27.0,30.0,59,0.00,,,0.00,meteohub,2013-09-14 20:32:00,
2013-09-14 14:37:00,62.8,47.8,24.30,North,0,22.0,30.0,58,0.00,,,0.00,meteohub,2013-09-14 20:37:00,
2013-09-14 14:42:00,62.4,47.8,24.30,North,0,27.0,30.0,59,0.00,,,0.00,meteohub,2013-09-14 20:42:00,
2013-09-14 14:47:00,62.8,48.2,24.30,North,0,27.0,30.0,59,0.00,,,0.00,meteohub,2013-09-14 20:47:00,
2013-09-14 14:52:00,62.8,48.2,24.30,North,0,27.0,29.0,59,0.00,,,0.00,meteohub,2013-09-14 20:52:00,
2013-09-14 14:57:00,62.8,48.2,24.30,North,0,17.0,27.0,59,0.00,,,0.00,meteohub,2013-09-14 20:57:00,
2013-09-14 15:02:00,63.1,48.6,24.30,North,0,28.0,28.0,59,0.00,,,0.00,meteohub,2013-09-14 21:02:00,
2013-09-14 15:07:00,63.1,48.6,24.30,North,0,28.0,28.0,59,0.00,,,0.00,meteohub,2013-09-14 21:07:00,
2013-09-14 15:12:00,63.0,48.4,24.30,North,0,17.0,28.0,59,0.00,,,0.00,meteohub,2013-09-14 21:12:00,
2013-09-14 15:17:00,63.1,48.2,24.30,North,0,27.0,28.0,58,0.00,,,0.00,meteohub,2013-09-14 21:17:00,
2013-09-14 15:22:00,64.0,48.0,24.30,North,0,26.0,28.0,56,0.00,,,0.00,meteohub,2013-09-14 21:22:00,
2013-09-14 15:27:00,63.1,47.7,24.30,North,0,23.0,27.0,57,0.00,,,0.00,meteohub,2013-09-14 21:27:00,
2013-09-14 15:32:00,62.6,47.7,24.30,North,0,28.0,28.0,58,0.00,,,0.00,meteohub,2013-09-14 21:32:00,
2013-09-14 15:37:00,63.0,47.5,24.30,North,0,28.0,30.0,57,0.00,,,0.00,meteohub,2013-09-14 21:37:00,
2013-09-14 15:42:00,62.2,47.3,24.30,North,0,29.0,30.0,58,0.00,,,0.00,meteohub,2013-09-14 21:42:00,
2013-09-14 15:47:00,63.1,46.8,24.30,WSW,248,28.0,34.0,55,0.00,,,0.00,meteohub,2013-09-14 21:47:00,
2013-09-14 15:52:00,63.5,47.1,24.30,North,0,27.0,34.0,55,0.00,,,0.00,meteohub,2013-09-14 21:52:00,
2013-09-14 15:57:00,63.1,46.8,24.30,North,0,24.0,34.0,55,0.00,,,0.00,meteohub,2013-09-14 21:57:00,
2013-09-14 16:02:00,63.1,47.1,24.30,North,0,23.0,31.0,56,0.00,,,0.00,meteohub,2013-09-14 22:02:00,
2013-09-14 16:07:00,63.1,47.1,24.30,North,0,23.0,31.0,56,0.00,,,0.00,meteohub,2013-09-14 22:07:00,
2013-09-14 16:12:00,64.4,46.4,24.31,NE,45,23.0,27.0,52,0.00,,,0.00,meteohub,2013-09-14 22:12:00,
2013-09-14 16:17:00,63.9,46.4,24.30,North,0,22.0,27.0,53,0.00,,,0.00,meteohub,2013-09-14 22:17:00,
2013-09-14 16:22:00,63.1,45.7,24.31,North,0,21.0,28.0,53,0.00,,,0.00,meteohub,2013-09-14 22:22:00,
2013-09-14 16:27:00,63.1,45.7,24.31,North,0,28.0,28.0,53,0.00,,,0.00,meteohub,2013-09-14 22:27:00,
2013-09-14 16:32:00,62.8,45.9,24.31,NE,45,16.0,28.0,54,0.00,,,0.00,meteohub,2013-09-14 22:32:00,
2013-09-14 16:37:00,63.0,46.0,24.31,North,0,23.0,28.0,54,0.00,,,0.00,meteohub,2013-09-14 22:37:00,
2013-09-14 16:42:00,63.1,46.2,24.31,NE,45,15.0,28.0,54,0.00,,,0.00,meteohub,2013-09-14 22:42:00,
2013-09-14 16:47:00,63.5,45.0,24.32,NE,45,21.0,27.0,51,0.00,,,0.00,meteohub,2013-09-14 22:47:00,
2013-09-14 16:52:00,63.1,45.7,24.31,North,0,23.0,25.0,53,0.00,,,0.00,meteohub,2013-09-14 22:52:00,
2013-09-14 16:57:00,63.1,45.7,24.32,North,0,23.0,25.0,53,0.00,,,0.00,meteohub,2013-09-14 22:57:00,
2013-09-14 17:02:00,62.8,45.3,24.32,North,0,17.0,25.0,53,0.00,,,0.00,meteohub,2013-09-14 23:02:00,
2013-09-14 17:07:00,62.8,45.3,24.32,North,0,17.0,25.0,53,0.00,,,0.00,meteohub,2013-09-14 23:07:00,
2013-09-14 17:12:00,63.0,46.0,24.31,North,0,23.0,23.0,54,0.00,,,0.00,meteohub,2013-09-14 23:12:00,
2013-09-14 17:17:00,62.8,45.9,24.31,North,0,18.0,23.0,54,0.00,,,0.00,meteohub,2013-09-14 23:17:00,
2013-09-14 17:22:00,63.0,46.0,24.31,NNE,23,18.0,23.0,54,0.00,,,0.00,meteohub,2013-09-14 23:22:00,
2013-09-14 17:27:00,62.8,45.9,24.32,NE,45,21.0,23.0,54,0.00,,,0.00,meteohub,2013-09-14 23:27:00,
2013-09-14 17:32:00,62.4,46.0,24.32,North,0,19.0,22.0,55,0.00,,,0.00,meteohub,2013-09-14 23:32:00,
2013-09-14 17:37:00,62.2,46.4,24.32,NE,45,13.0,22.0,56,0.00,,,0.00,meteohub,2013-09-14 23:37:00,
2013-09-14 17:42:00,62.1,46.2,24.31,NNW,338,15.0,22.0,56,0.00,,,0.00,meteohub,2013-09-14 23:42:00,
2013-09-14 17:47:00,62.1,46.2,24.31,WSW,248,17.0,23.0,56,0.00,,,0.00,meteohub,2013-09-14 23:47:00,
2013-09-14 17:52:00,61.9,46.4,24.31,North,0,16.0,23.0,57,0.00,,,0.00,meteohub,2013-09-14 23:52:00,
2013-09-14 17:57:00,61.9,46.4,24.32,North,0,15.0,23.0,57,0.00,,,0.00,meteohub,2013-09-14 23:57:00,
2013-09-14 18:02:00,61.7,45.9,24.32,WNW,293,13.0,21.0,56,0.00,,,0.00,meteohub,2013-09-15 00:02:00,
2013-09-14 18:07:00,61.7,45.9,24.32,WNW,293,13.0,21.0,56,0.00,,,0.00,meteohub,2013-09-15 00:07:00,
2013-09-14 18:12:00,61.3,46.4,24.32,North,0,15.0,15.0,58,0.00,,,0.00,meteohub,2013-09-15 00:12:00,
2013-09-14 18:17:00,61.2,46.2,24.32,North,0,15.0,17.0,58,0.00,,,0.00,meteohub,2013-09-15 00:17:00,
2013-09-14 18:22:00,61.2,46.2,24.31,North,0,14.0,17.0,58,0.00,,,0.00,meteohub,2013-09-15 00:22:00,
2013-09-14 18:27:00,61.0,46.6,24.31,North,0,12.0,17.0,59,0.00,,,0.00,meteohub,2013-09-15 00:27:00,
2013-09-14 18:32:00,61.0,46.6,24.32,NE,45,12.0,15.0,59,0.00,,,0.00,meteohub,2013-09-15 00:32:00,
2013-09-14 18:37:00,60.8,46.4,24.31,North,0,14.0,16.0,59,0.00,,,0.00,meteohub,2013-09-15 00:37:00,
2013-09-14 18:42:00,60.6,46.6,24.31,North,0,12.0,16.0,60,0.00,,,0.00,meteohub,2013-09-15 00:42:00,
2013-09-14 18:47:00,60.4,46.9,24.31,North,0,11.0,14.0,61,0.00,,,0.00,meteohub,2013-09-15 00:47:00,
2013-09-14 18:52:00,59.9,46.8,24.31,North,0,10.0,14.0,62,0.00,,,0.00,meteohub,2013-09-15 00:52:00,
2013-09-14 18:57:00,59.7,47.1,24.31,North,0,10.0,12.0,63,0.00,,,0.00,meteohub,2013-09-15 00:57:00,
2013-09-14 19:02:00,59.7,47.1,24.31,North,0,11.0,11.0,63,0.00,,,0.00,meteohub,2013-09-15 01:02:00,
2013-09-14 19:07:00,59.7,47.1,24.31,North,0,11.0,11.0,63,0.00,,,0.00,meteohub,2013-09-15 01:07:00,
2013-09-14 19:12:00,59.5,46.9,24.31,North,0,11.0,12.0,63,0.00,,,0.00,meteohub,2013-09-15 01:12:00,
2013-09-14 19:17:00,59.5,47.3,24.31,North,0,13.0,13.0,64,0.00,,,0.00,meteohub,2013-09-15 01:17:00,
2013-09-14 19:22:00,59.4,47.1,24.31,North,0,12.0,13.0,64,0.00,,,0.00,meteohub,2013-09-15 01:22:00,
2013-09-14 19:27:00,59.2,47.5,24.31,North,0,13.0,14.0,65,0.00,,,0.00,meteohub,2013-09-15 01:27:00,
2013-09-14 19:32:00,59.0,47.7,24.31,North,0,14.0,14.0,66,0.00,,,0.00,meteohub,2013-09-15 01:32:00,
2013-09-14 19:37:00,58.6,47.3,24.31,NNE,23,12.0,16.0,66,0.00,,,0.00,meteohub,2013-09-15 01:37:00,
2013-09-14 19:42:00,58.6,47.3,24.31,North,0,15.0,16.0,66,0.00,,,0.00,meteohub,2013-09-15 01:42:00,
2013-09-14 19:47:00,58.5,47.5,24.32,North,0,13.0,16.0,67,0.00,,,0.00,meteohub,2013-09-15 01:47:00,
2013-09-14 19:52:00,58.3,47.3,24.31,North,0,14.0,16.0,67,0.00,,,0.00,meteohub,2013-09-15 01:52:00,
2013-09-14 19:57:00,58.5,47.1,24.31,North,0,15.0,16.0,66,0.00,,,0.00,meteohub,2013-09-15 01:57:00,
2013-09-14 20:02:00,58.1,46.8,24.32,North,0,15.0,16.0,66,0.00,,,0.00,meteohub,2013-09-15 02:02:00,
2013-09-14 20:12:00,58.1,46.4,24.32,North,0,10.0,16.0,65,0.00,,,0.00,meteohub,2013-09-15 02:12:00,
2013-09-14 20:17:00,58.1,46.0,24.32,NNE,23,15.0,15.0,64,0.00,,,0.00,meteohub,2013-09-15 02:17:00,
2013-09-14 20:22:00,58.1,46.0,24.32,North,0,10.0,15.0,64,0.00,,,0.00,meteohub,2013-09-15 02:22:00,
2013-09-14 20:27:00,57.9,46.2,24.32,North,0,8.0,15.0,65,0.00,,,0.00,meteohub,2013-09-15 02:27:00,
2013-09-14 20:32:00,57.6,45.9,24.32,North,0,6.0,15.0,65,0.00,,,0.00,meteohub,2013-09-15 02:32:00,
2013-09-14 20:37:00,57.2,45.9,24.32,NE,45,6.0,10.0,66,0.00,,,0.00,meteohub,2013-09-15 02:37:00,
2013-09-14 20:42:00,57.4,46.0,24.32,NE,45,7.0,8.0,66,0.00,,,0.00,meteohub,2013-09-15 02:42:00,
2013-09-14 20:47:00,57.4,46.0,24.32,East,90,9.0,9.0,66,0.00,,,0.00,meteohub,2013-09-15 02:47:00,
2013-09-14 20:52:00,57.4,46.9,24.32,East,90,11.0,11.0,68,0.00,,,0.00,meteohub,2013-09-15 02:52:00,
2013-09-14 20:57:00,57.6,47.5,24.32,East,90,11.0,12.0,69,0.00,,,0.00,meteohub,2013-09-15 02:57:00,
2013-09-14 21:02:00,57.4,47.3,24.33,East,90,13.0,13.0,69,0.00,,,0.00,meteohub,2013-09-15 03:02:00,
2013-09-14 21:07:00,57.4,47.3,24.32,East,90,13.0,13.0,69,0.00,,,0.00,meteohub,2013-09-15 03:07:00,
2013-09-14 21:12:00,57.7,47.7,24.33,East,90,15.0,15.0,69,0.00,,,0.00,meteohub,2013-09-15 03:12:00,
2013-09-14 21:17:00,57.7,47.3,24.32,East,90,14.0,15.0,68,0.00,,,0.00,meteohub,2013-09-15 03:17:00,
2013-09-14 21:22:00,57.9,47.5,24.32,East,90,15.0,16.0,68,0.00,,,0.00,meteohub,2013-09-15 03:22:00,
2013-09-14 21:27:00,57.9,47.5,24.32,East,90,16.0,16.0,68,0.00,,,0.00,meteohub,2013-09-15 03:27:00,
2013-09-14 21:32:00,57.7,47.3,24.33,East,90,15.0,17.0,68,0.00,,,0.00,meteohub,2013-09-15 03:32:00,
2013-09-14 21:37:00,57.7,47.3,24.32,East,90,14.0,17.0,68,0.00,,,0.00,meteohub,2013-09-15 03:37:00,
2013-09-14 21:42:00,57.6,47.5,24.33,East,90,12.0,17.0,69,0.00,,,0.00,meteohub,2013-09-15 03:42:00,
2013-09-14 21:47:00,57.7,47.3,24.33,East,90,15.0,15.0,68,0.00,,,0.00,meteohub,2013-09-15 03:47:00,
2013-09-14 21:52:00,57.6,47.1,24.33,SE,135,14.0,16.0,68,0.00,,,0.00,meteohub,2013-09-15 03:52:00,
2013-09-14 21:57:00,57.2,47.1,24.33,SE,135,12.0,16.0,69,0.00,,,0.00,meteohub,2013-09-15 03:57:00,
2013-09-14 22:02:00,57.2,47.5,24.33,SE,135,11.0,16.0,70,0.00,,,0.00,meteohub,2013-09-15 04:02:00,
2013-09-14 22:07:00,57.2,47.5,24.33,SE,135,11.0,15.0,70,0.00,,,0.00,meteohub,2013-09-15 04:07:00,
2013-09-14 22:12:00,57.4,46.9,24.33,East,90,14.0,14.0,68,0.00,,,0.00,meteohub,2013-09-15 04:12:00,
2013-09-14 22:17:00,57.4,46.9,24.33,East,90,14.0,15.0,68,0.00,,,0.00,meteohub,2013-09-15 04:17:00,
2013-09-14 22:22:00,57.4,46.9,24.33,ENE,68,12.0,17.0,68,0.00,,,0.00,meteohub,2013-09-15 04:22:00,
2013-09-14 22:27:00,57.0,46.9,24.33,SE,135,13.0,17.0,69,0.00,,,0.00,meteohub,2013-09-15 04:27:00,
2013-09-14 22:32:00,56.8,46.8,24.33,SE,135,12.0,15.0,69,0.00,,,0.00,meteohub,2013-09-15 04:32:00,
2013-09-14 22:37:00,56.7,46.6,24.33,East,90,10.0,15.0,69,0.00,,,0.00,meteohub,2013-09-15 04:37:00,
2013-09-14 22:42:00,56.7,46.6,24.33,SE,135,8.0,14.0,69,0.00,,,0.00,meteohub,2013-09-15 04:42:00,
2013-09-14 22:47:00,56.5,46.8,24.33,SE,135,8.0,12.0,70,0.00,,,0.00,meteohub,2013-09-15 04:47:00,
2013-09-14 22:52:00,56.3,46.6,24.33,SE,135,6.0,12.0,70,0.00,,,0.00,meteohub,2013-09-15 04:52:00,
2013-09-14 22:57:00,56.3,46.6,24.33,SE,135,9.0,11.0,70,0.00,,,0.00,meteohub,2013-09-15 04:57:00,
2013-09-14 23:02:00,56.3,46.6,24.33,SE,135,8.0,9.0,70,0.00,,,0.00,meteohub,2013-09-15 05:02:00,
2013-09-14 23:07:00,56.3,46.6,24.33,SE,135,8.0,9.0,70,0.00,,,0.00,meteohub,2013-09-15 05:07:00,
2013-09-14 23:12:00,57.0,46.6,24.33,South,180,10.0,10.0,68,0.00,,,0.00,meteohub,2013-09-15 05:12:00,
2013-09-14 23:17:00,56.7,46.6,24.33,South,180,15.0,15.0,69,0.00,,,0.00,meteohub,2013-09-15 05:17:00,
2013-09-14 23:22:00,56.5,46.4,24.33,SSE,158,11.0,17.0,69,0.00,,,0.00,meteohub,2013-09-15 05:22:00,
2013-09-14 23:27:00,56.1,46.4,24.33,South,180,11.0,17.0,70,0.00,,,0.00,meteohub,2013-09-15 05:27:00,
2013-09-14 23:32:00,55.9,46.8,24.33,SSE,158,11.0,17.0,71,0.00,,,0.00,meteohub,2013-09-15 05:32:00,
2013-09-14 23:37:00,55.6,46.8,24.33,SSE,158,11.0,13.0,72,0.00,,,0.00,meteohub,2013-09-15 05:37:00,
2013-09-14 23:42:00,55.8,46.9,24.33,South,180,7.0,13.0,72,0.00,,,0.00,meteohub,2013-09-15 05:42:00,
2013-09-14 23:47:00,55.8,46.9,24.33,South,180,9.0,13.0,72,0.00,,,0.00,meteohub,2013-09-15 05:47:00,
2013-09-14 23:52:00,56.1,46.8,24.33,South,180,9.0,12.0,71,0.00,,,0.00,meteohub,2013-09-15 05:52:00,
2013-09-14 23:57:00,55.8,46.6,24.33,South,180,8.0,11.0,71,0.00,,,0.00,meteohub,2013-09-15 05:57:00,